SABESAZS

Guest
Details From SABE - Aeroparque Jorge Newbery
To SAZS - San Carlos De Bariloche
Flight Number -
Tags Generated
Created
Modified
Stats Distance 722 nm / 1,337 km
Max Altitude 0 ft / 0 m
Waypoints 3
Social Downloads 4
Likes 0
Share VATSIM

Download

Looking for another format? Having issues loading an existing format? Contact us
Advertisement - Login to hide

Notes

Generated

Route

SABE R1349 SAZS

ID Type Via Altitude Latitude Longitude Leg Dist Tot Dist Heading (true) Name
O SABE APT - 0 ft / 0 m -34.55416˚ -58.42526˚ - 0 nm - -
R1349 FIX - 0 ft / 0 m -41.15557˚ -71.14482˚ 720 nm 720 nm 233° / 241° -
O SAZS APT - 0 ft / 0 m -41.14677˚ -71.17026˚ 1 nm 721 nm 295° / 295° -

Altitude Profile

Advertisement - Login to hide

Weather


0- 5 10 15 20 25 30 35+ Temperature / ° C

Clouds and Precipitation
Forecast for 2017-06-24 00:00 UTC. Updated an hour ago

Ground ~20,000 ft ~40,000 ft Winds

SABE

Details ICAO SABE (AEP)
Name Aeroparque Jorge Newbery
Region Argentina
Timezone Unknown (UTC+0.0)
Stats Elevation 17 ft / 5 m (AMSL)
Location -34.559414° -58.415749°
Runways 1
Magnetic Variation 8.902° W

METAR

SABE 232000Z 01007KT CAVOK 20/16 Q1011

Decode

TAF

TAF SABE 231700Z 2318/2418 36010KT 9999 SCT020 BKN100 TX21/2418Z TN16/2410Z BECMG 2401/2403 11010KT 7000 -SHRA BKN015 FEW035TCU OVC050 BECMG 2406/2408 11010KT 5000 DZ BR BKN009

Decode

Departure Runways

ID Width Length Bearing (true) Bearing (mag) Surface Threshold Offset Overrun Length
13 131 ft / 40 m 6,882 ft / 2,098 m 123.87° 132.77° Concrete 0 ft / 0 m 791 ft / 241 m
31 131 ft / 40 m 6,882 ft / 2,098 m 303.86° 312.76° Concrete 991 ft / 302 m 0 ft / 0 m

SAZS

Details ICAO SAZS (BRC)
Name SAN CARLOS DE BARILOCHE
Region Argentina
Timezone America/Argentina/Salta (UTC-3.0)
Stats Elevation 2,776 ft / 846 m (AMSL)
Location -41.151172° -71.157541°
Runways 1
Magnetic Variation 6.716° E

METAR

SAZS 232000Z 30012KT 9999 SCT025 06/00 Q1013

Decode

TAF

TAF SAZS 231700Z 2318/2418 29020KT 9999 BKN025 TX07/2319Z TN00/2410Z BECMG 2403/2405 16005KT 4000 SNRA OVC010 OVC035 BECMG 2410/2412 09005KT 6000 RADZ BKN008 OVC040

Decode

Destination Runways

ID Width Length Bearing (true) Bearing (mag) Surface Threshold Offset Overrun Length
11 157 ft / 48 m 7,693 ft / 2,345 m 114.70° 107.98° Asphalt 0 ft / 0 m 0 ft / 0 m
29 157 ft / 48 m 7,693 ft / 2,345 m 294.68° 287.96° Asphalt 0 ft / 0 m 0 ft / 0 m

Approach Navaids

Runway Type Ident Frequency Range Bearing (true) Bearing (mag) Slope Elevation
29 Localiser BR 109.50 MHz 18 nm / 33 km 294.79° 288.08° - 2,776 ft / 846 m (AMSL)
29 Glidescope BR 109.50 MHz 10 nm / 19 km 294.69° 287.97° 3.00° 2,776 ft / 846 m (AMSL)
29 DME BR 109.50 MHz 18 nm / 33 km - - - 2,776 ft / 846 m (AMSL)

Popular Alternatives